This is the latest recevied weather packets stored in our database for station/object KMASWX. If no packets are shown the sender has not sent any weather packets the latest 10 day(s).
| Time | Temp. | Humidity | Pressure | Rain* | Wind** | Luminosity | Snow |
|---|---|---|---|---|---|---|---|
| 1778126081 | 19.44° C | 48% | - | 0 mm | - | - | - |
| 1778125778 | 20° C | 46% | - | 0 mm | - | - | - |
| 1778125473 | 20.56° C | 47% | - | 0 mm | - | - | - |
| 1778125170 | 20° C | 48% | - | 0 mm | - | - | - |
| 1778124866 | 20.56° C | 45% | - | 0 mm | - | - | - |
| 1778124563 | 20.56° C | 45% | - | 0 mm | - | - | - |
| 1778124259 | 20.56° C | 45% | - | 0 mm | - | - | - |
| 1778123946 | 21.11° C | 45% | - | 0 mm | - | - | - |
| 1778123640 | 21.11° C | 45% | - | 0 mm | - | - | - |
| 1778123336 | 21.11° C | 45% | - | 0 mm | - | - | - |
| 1778123033 | 21.11° C | 44% | - | 0 mm | - | - | - |
| 1778122725 | 21.67° C | 43% | - | 0 mm | - | - | - |
| 1778121810 | 21.67° C | 44% | - | 0 mm | - | - | - |
| 1778121505 | 21.67° C | 43% | - | 0 mm | - | - | - |
| 1778121202 | 21.67° C | 43% | - | 0 mm | - | - | - |
| 1778120895 | 21.11° C | 44% | - | 0 mm | - | - | - |
| 1778120592 | 21.67° C | 44% | - | 0 mm | - | - | - |
| 1778120288 | 21.67° C | 44% | - | 0 mm | - | - | - |
| 1778119984 | 21.67° C | 43% | - | 0 mm | - | - | - |
| 1778119678 | 21.67° C | 43% | - | 0 mm | - | - | - |
| 1778119374 | 21.67° C | 43% | - | 0 mm | - | - | - |
| 1778119071 | 22.22° C | 44% | - | 0 mm | - | - | - |
| 1778118767 | 22.22° C | 44% | - | 0 mm | - | - | - |
| 1778118461 | 22.78° C | 39% | - | 0 mm | - | - | - |
| 1778118157 | 22.78° C | 39% | - | 0 mm | - | - | - |
* Rain latest 24 hours (hover to see other rain measurements)
** Current wind speed in m/s (hover to see current wind gust speed)